Date,TemperatureHighF,TemperatureAvgF,TemperatureLowF,DewpointHighF,DewpointAvgF,DewpointLowF,HumidityHigh,HumidityAvg,HumidityLow,PressureMaxIn,PressureMinIn,WindSpeedMaxMPH,WindSpeedAvgMPH,GustSpeedMaxMPH,PrecipitationSumIn
2013-1-1,24.0,21.6,18.0,18.0,13.6,11.0,82,71,60,30.13,30.01,0,-999,0,0.00
2013-1-2,25.0,21.2,17.0,21.0,15.1,11.0,85,77,68,30.14,30.03,0,-999,0,0.00
2013-1-3,28.0,25.1,20.0,23.0,20.1,16.0,92,82,76,30.09,29.98,0,-999,0,0.00
2013-1-4,33.0,28.5,26.0,25.0,22.3,20.0,86,77,69,30.10,29.89,0,-999,0,0.00
2013-1-5,33.0,27.5,18.0,31.0,24.4,16.0,96,88,77,30.22,29.91,0,-999,0,0.00
2013-1-6,34.0,32.6,29.0,33.0,29.9,23.0,96,90,79,30.22,29.81,0,-999,0,0.00
2013-1-7,36.0,31.5,28.0,26.0,24.7,23.0,87,76,58,30.27,30.02,0,-999,0,0.00
2013-1-8,39.0,31.6,27.0,32.0,26.4,23.0,86,81,73,30.16,30.04,0,-999,0,0.00
2013-1-9,45.0,37.3,29.0,34.0,29.3,25.0,89,73,48,30.37,29.88,0,-999,0,0.00
2013-1-10,37.0,32.1,26.0,32.0,27.7,23.0,92,84,75,30.53,30.14,0,-999,0,0.00
2013-1-11,50.0,41.3,33.0,49.0,40.1,31.0,98,96,91,30.16,29.66,0,-999,0,0.00
2013-1-12,56.0,48.0,41.0,49.0,41.5,31.0,96,80,57,29.89,29.70,0,-999,0,0.00
2013-1-13,40.0,34.6,27.0,35.0,32.7,23.0,97,93,73,29.98,29.75,0,-999,0,0.00
2013-1-14,27.0,21.5,16.0,25.0,15.6,11.0,93,78,65,30.38,29.96,0,-999,0,0.00
2013-1-15,27.0,19.8,13.0,19.0,15.4,11.0,92,83,69,30.40,30.13,0,-999,0,0.00
2013-1-16,34.0,25.3,17.0,29.0,21.0,14.0,91,84,69,30.13,29.68,0,-999,0,0.00
2013-1-17,31.0,21.7,13.0,28.0,15.9,5.0,90,78,58,30.30,29.88,0,-999,0,0.00
2013-1-18,35.0,20.5,7.0,27.0,14.6,4.0,88,78,67,30.40,29.82,0,-999,0,0.00
2013-1-19,40.0,36.8,32.0,36.0,30.8,24.0,94,79,70,29.82,29.42,0,-999,0,0.00
2013-1-20,33.0,18.5,11.0,32.0,11.8,4.0,95,75,63,30.15,29.43,0,-999,0,0.00
2013-1-21,13.0,9.7,2.0,10.0,2.8,-5.0,86,73,56,30.12,29.93,0,-999,0,0.00
2013-1-22,7.0,2.6,-1.0,-1.0,-5.6,-8.0,77,68,54,30.27,30.07,0,-999,0,0.00
2013-1-23,15.0,8.5,2.0,11.0,4.3,-4.0,90,83,76,30.27,30.07,0,-999,0,0.00
2013-1-24,15.0,9.2,3.0,9.0,2.9,-1.0,91,75,57,30.61,30.14,0,-999,0,0.00
2013-1-25,20.0,15.4,11.0,19.0,11.2,4.0,100,83,72,30.50,29.99,0,-999,0,0.00
2013-1-26,28.0,20.7,16.0,17.0,15.6,13.0,92,81,60,30.41,30.02,0,-999,0,0.00
2013-1-27,28.0,22.9,15.0,25.0,17.3,12.0,94,79,65,30.43,30.12,0,-999,0,0.00
2013-1-28,38.0,33.8,26.0,37.0,32.4,25.0,97,95,92,30.12,29.78,0,-999,0,0.00
2013-1-29,53.0,41.4,33.0,52.0,40.4,31.0,99,97,93,29.98,29.35,0,-999,0,0.00
2013-1-30,53.0,40.0,31.0,52.0,38.8,26.0,99,96,82,29.36,29.01,0,-999,0,0.00
2013-1-31,30.0,20.6,17.0,25.0,12.4,7.0,81,70,58,29.83,29.14,16,-308,0,0.00
2013-2-1,18.0,16.1,12.0,12.0,8.6,4.0,83,72,61,30.16,29.83,13,10,0,0.00
2013-2-2,17.0,13.6,8.0,11.0,7.9,3.0,88,78,62,30.13,29.98,10,5,0,0.00
2013-2-3,19.0,12.3,6.0,14.0,7.2,2.0,87,80,67,30.02,29.82,13,4,0,0.00
2013-2-4,22.0,14.8,11.0,14.0,10.7,8.0,89,84,71,29.99,29.89,5,2,0,0.00
2013-2-5,26.0,16.7,6.0,23.0,12.6,3.0,90,84,75,29.96,29.74,15,4,0,0.00
2013-2-6,28.0,21.0,9.0,22.0,14.9,7.0,92,77,62,30.26,29.96,8,2,0,0.00
2013-2-7,30.0,26.5,24.0,27.0,23.9,20.0,97,90,77,30.23,29.94,9,5,0,0.00
2013-2-8,28.0,23.2,10.0,27.0,20.0,7.0,100,88,72,30.35,29.89,24,15,0,0.00
2013-2-9,26.0,11.7,0.0,18.0,8.3,-3.0,100,86,71,30.44,30.27,6,1,0,0.00
2013-2-10,38.0,19.4,1.0,36.0,16.8,-2.0,94,90,84,30.27,29.60,9,3,0,0.00
2013-2-11,41.0,37.0,32.0,40.0,32.6,28.0,96,84,73,29.74,29.44,18,12,0,0.00
2013-2-12,32.0,29.3,25.0,28.0,23.3,19.0,85,78,73,29.96,29.73,12,8,0,0.00
2013-2-13,33.0,29.1,25.0,28.0,24.7,19.0,87,83,78,29.88,29.70,9,5,0,0.00
2013-2-14,39.0,33.1,29.0,35.0,30.4,25.0,96,90,81,29.77,29.56,21,6,0,0.00
2013-2-15,28.0,24.0,19.0,26.0,17.3,11.0,92,75,59,30.10,29.76,21,8,0,0.00
2013-2-16,22.0,16.4,9.0,17.0,13.1,4.0,92,87,77,30.09,29.99,10,3,0,0.00
2013-2-17,22.0,12.0,2.0,9.0,4.4,-2.0,86,72,53,30.20,30.09,9,4,0,0.00
2013-2-18,43.0,28.1,14.0,37.0,19.3,7.0,85,70,57,30.17,29.49,10,6,0,0.00
2013-2-19,44.0,31.0,19.0,40.0,25.8,8.0,94,81,64,29.83,29.28,18,13,0,0.00
2013-2-20,20.0,18.0,15.0,14.0,10.3,7.0,80,72,64,30.23,29.83,19,14,0,0.00
2013-2-21,22.0,17.0,13.0,20.0,12.0,6.0,93,80,74,30.41,30.23,16,8,0,0.00
2013-2-22,30.0,25.1,22.0,29.0,23.3,17.0,97,93,81,30.29,29.81,14,5,0,0.00
2013-2-23,33.0,29.5,25.0,31.0,26.3,23.0,97,88,67,29.85,29.79,9,6,0,0.00
2013-2-24,36.0,29.7,24.0,27.0,23.9,22.0,100,80,60,30.11,29.83,10,5,0,0.00
2013-2-25,37.0,31.7,27.0,26.0,23.9,22.0,85,73,57,30.19,30.10,5,2,0,0.00
2013-2-26,34.0,29.4,22.0,31.0,26.4,19.0,97,89,82,30.13,29.60,25,13,0,0.00
2013-2-27,33.0,32.5,32.0,32.0,31.8,31.0,98,98,97,29.60,29.50,18,12,0,0.00
2013-2-28,34.0,32.0,28.0,32.0,28.6,22.0,98,88,76,29.97,29.55,18,13,0,0.00
2013-3-1,28.0,24.7,22.0,23.0,19.3,16.0,84,80,74,30.13,29.97,17,13,0,0.00
2013-3-2,25.0,22.1,18.0,19.0,16.9,14.0,92,81,73,30.12,30.06,15,9,0,0.00
2013-3-3,30.0,19.8,13.0,20.0,14.8,10.0,90,81,66,30.06,29.98,13,5,0,0.00
2013-3-4,31.0,20.8,12.0,21.0,15.1,9.0,91,79,61,30.13,30.06,6,3,0,0.00
2013-3-5,30.0,22.3,13.0,28.0,19.7,11.0,93,90,79,30.14,29.92,20,8,0,0.00
2013-3-6,34.0,31.3,28.0,32.0,28.6,25.0,95,90,86,30.19,29.94,17,8,0,0.00
2013-3-7,33.0,30.2,25.0,31.0,24.0,19.0,96,78,60,30.39,30.18,13,6,0,0.00
2013-3-8,37.0,28.0,21.0,28.0,22.8,17.0,88,80,67,30.49,30.39,6,2,0,0.00
2013-3-9,40.0,32.2,22.0,33.0,27.7,21.0,96,84,68,30.39,30.01,7,3,0,0.00
2013-3-10,46.0,39.1,33.0,42.0,36.1,31.0,96,89,80,30.02,29.75,7,2,0,0.00
2013-3-11,48.0,41.8,36.0,47.0,40.0,33.0,98,93,85,29.76,29.40,13,4,0,0.00
2013-3-12,36.0,32.7,29.0,34.0,28.6,24.0,93,85,70,29.83,29.54,12,8,0,0.00
2013-3-13,32.0,27.3,23.0,26.0,18.4,14.0,88,70,48,30.15,29.81,20,13,0,0.00
2013-3-14,38.0,29.6,21.0,23.0,19.3,15.0,84,66,44,30.22,30.01,12,6,0,0.00
2013-3-15,41.0,33.9,30.0,31.0,27.0,21.0,86,77,52,30.01,29.82,12,7,0,0.00
2013-3-16,30.0,25.2,22.0,25.0,22.2,20.0,94,89,75,30.03,29.81,16,9,0,0.00
2013-3-17,23.0,20.5,17.0,21.0,13.0,7.0,92,73,56,30.31,30.02,18,8,0,0.00
2013-3-18,32.0,26.4,18.0,30.0,22.8,13.0,97,86,73,30.23,29.51,10,5,0,0.00
2013-3-19,33.0,25.3,22.0,31.0,19.8,15.0,97,80,68,29.84,29.50,14,10,0,0.00
2013-3-20,26.0,22.3,18.0,17.0,14.6,12.0,79,72,59,29.89,29.83,12,7,0,0.00
2013-3-21,31.0,25.0,18.0,23.0,18.7,13.0,87,77,65,29.89,29.78,18,10,0,0.00
2013-3-22,35.0,29.2,25.0,27.0,22.2,19.0,80,75,66,30.00,29.89,13,8,0,0.00
2013-3-23,37.0,31.2,28.0,27.0,24.7,23.0,86,77,62,30.09,30.00,11,5,0,0.00
2013-3-24,33.0,30.6,28.0,29.0,26.4,24.0,92,84,74,30.03,29.72,21,10,0,0.00
2013-3-25,37.0,33.7,30.0,32.0,29.2,26.0,88,83,74,29.91,29.67,21,14,0,0.00
2013-3-26,41.0,36.1,32.0,33.0,29.1,26.0,87,76,61,30.07,29.91,13,8,0,0.00
2013-3-27,45.0,37.2,31.0,31.0,27.9,25.0,83,69,52,30.16,30.05,16,11,0,0.00
2013-3-28,50.0,39.5,31.0,30.0,27.4,24.0,82,64,39,30.22,30.16,12,8,0,0.00
2013-3-29,51.0,39.1,29.0,31.0,25.1,22.0,84,60,34,30.24,30.15,10,4,0,0.00
2013-3-30,53.0,39.5,26.0,33.0,27.3,23.0,90,65,32,30.18,29.84,10,3,0,0.00
2013-3-31,54.0,44.6,35.0,42.0,35.5,-99.9,90,73,52,29.84,29.54,17,7,0,0.00
2013-4-1,35.0,29.0,26.0,30.0,17.0,12.0,83,61,45,30.05,29.65,20,12,0,0.00
2013-4-2,37.0,29.0,22.0,19.0,15.9,11.0,83,60,37,30.21,30.05,18,9,0,0.00
2013-4-3,42.0,31.1,22.0,21.0,16.8,14.0,77,56,37,30.40,30.21,14,6,0,0.00
2013-4-4,55.0,40.6,28.0,34.0,24.0,18.0,75,53,33,30.30,29.87,14,8,0,0.00
2013-4-5,41.0,35.0,31.0,34.0,25.7,18.0,85,69,43,30.19,29.93,17,8,0,0.00
2013-4-6,47.0,36.8,29.0,31.0,24.1,20.0,76,61,44,30.21,29.65,10,6,0,0.00
2013-4-7,53.0,45.1,38.0,48.0,36.0,28.0,87,71,45,30.01,29.46,18,10,0,0.00
2013-4-8,42.0,38.1,32.0,40.0,35.5,29.0,97,91,77,30.01,29.66,15,6,0,0.00
2013-4-9,40.0,38.1,37.0,39.0,37.0,36.0,98,97,94,30.06,29.88,16,6,0,0.00
2013-4-10,38.0,36.7,36.0,37.0,34.9,32.0,96,93,82,30.09,29.93,24,16,0,0.00
2013-4-11,37.0,33.9,32.0,33.0,31.6,30.0,96,91,82,30.03,29.71,26,16,0,0.00
2013-4-12,40.0,35.7,32.0,38.0,34.0,31.0,96,93,85,29.72,29.53,18,9,0,0.00
2013-4-13,40.0,36.1,34.0,34.0,31.0,26.0,95,82,65,29.92,29.68,16,8,0,0.00
2013-4-14,41.0,35.9,30.0,37.0,31.8,27.0,92,85,77,30.08,29.91,11,5,0,0.00
2013-4-15,67.0,51.7,38.0,55.0,45.4,34.0,95,80,65,29.92,29.76,13,6,0,0.00
2013-4-16,56.0,48.6,41.0,53.0,40.3,33.0,96,75,44,30.24,29.83,12,8,0,0.00
2013-4-17,42.0,39.0,36.0,39.0,35.6,32.0,94,87,80,30.35,30.04,21,10,0,0.00
2013-4-18,62.0,50.7,41.0,60.0,49.1,39.0,98,94,87,30.04,29.39,15,6,0,0.00
2013-4-19,61.0,43.9,36.0,58.0,38.1,24.0,95,80,64,29.63,29.26,21,13,0,0.00
2013-4-20,36.0,32.2,28.0,25.0,20.8,18.0,75,63,52,30.41,29.63,16,11,0,0.00
2013-4-21,44.0,35.2,26.0,36.0,25.7,19.0,81,69,52,30.60,30.42,11,5,0,0.00
2013-4-22,54.0,44.0,33.0,42.0,33.2,25.0,82,66,44,30.44,30.15,10,4,0,0.00
2013-4-23,62.0,51.5,42.0,53.0,42.8,33.0,96,73,51,30.14,29.75,15,5,0,0.00
2013-4-24,46.0,38.3,33.0,39.0,31.1,24.0,95,77,45,30.03,29.80,15,10,0,0.00
2013-4-25,49.0,40.7,35.0,40.0,30.6,25.0,93,69,43,30.28,29.99,17,8,0,0.00
2013-4-26,60.0,47.0,33.0,40.0,33.3,27.0,88,61,42,30.38,30.23,12,6,0,0.00
2013-4-27,70.0,56.9,44.0,47.0,41.6,38.0,78,59,32,30.24,30.05,10,5,0,0.00
2013-4-28,62.0,53.0,45.0,52.0,44.4,-99.9,95,76,54,30.05,29.81,8,4,0,0.00
2013-4-29,69.0,58.7,52.0,56.0,52.8,51.0,98,83,59,29.87,29.80,8,3,0,0.00
2013-4-30,72.0,63.1,57.0,58.0,55.6,53.0,95,77,60,29.96,29.83,15,7,0,0.00
2013-5-1,83.0,71.6,60.0,62.0,56.6,53.0,82,61,36,30.14,29.95,8,6,0,0.00
2013-5-2,76.0,63.9,55.0,58.0,53.8,49.0,89,71,48,30.19,30.04,11,6,0,0.00
2013-5-3,74.0,65.8,60.0,58.0,50.8,43.0,74,59,37,30.08,30.00,11,4,0,0.00
2013-5-4,68.0,63.4,56.0,54.0,49.2,44.0,77,61,46,30.07,30.02,11,5,0,0.00
2013-5-5,66.0,59.1,53.0,53.0,49.3,44.0,83,71,50,30.08,29.99,13,6,0,0.00
2013-5-6,66.0,58.2,47.0,53.0,47.2,42.0,88,69,42,30.04,29.95,13,7,0,0.00
2013-5-7,69.0,58.6,47.0,51.0,47.2,42.0,88,67,37,30.04,29.97,15,6,0,0.00
2013-5-8,70.0,59.9,48.0,52.0,47.9,40.0,89,66,48,30.00,29.90,10,4,0,0.00
2013-5-9,75.0,60.7,48.0,59.0,50.4,45.0,90,71,37,29.93,29.83,15,5,0,0.00
2013-5-10,58.0,44.4,40.0,51.0,40.1,-99.9,95,90,76,29.89,29.81,29,18,0,0.00
2013-5-11,59.0,43.6,37.0,49.0,39.6,34.0,94,86,69,29.87,29.63,21,8,0,0.00
2013-5-12,42.0,38.0,35.0,35.0,29.6,-99.9,86,74,60,30.05,29.77,21,12,0,0.00
2013-5-13,54.0,41.5,30.0,32.0,27.2,25.0,86,60,34,30.12,30.03,13,5,0,0.00
2013-5-14,61.0,51.7,45.0,48.0,39.4,30.0,75,63,53,30.04,29.67,9,4,0,0.00
2013-5-15,77.0,65.3,53.0,55.0,47.5,40.0,83,56,28,29.72,29.44,17,8,0,0.00
2013-5-16,71.0,54.4,53.0,50.0,27.4,-99.9,75,60,22,30.02,29.71,17,6,0,0.00
2013-5-17,57.0,53.4,51.0,49.0,41.5,-99.9,85,74,64,30.15,30.02,15,7,0,0.00
2013-5-18,61.0,55.8,52.0,52.0,49.9,47.0,91,81,67,30.15,30.01,13,8,0,0.00
2013-5-19,78.0,64.1,50.0,63.0,54.7,48.0,94,73,54,30.01,29.81,8,2,0,0.00
2013-5-20,88.0,73.2,64.0,70.0,64.7,60.0,92,76,48,29.84,29.65,18,5,0,0.00
2013-5-21,77.0,70.6,65.0,66.0,64.1,62.0,94,80,60,29.73,29.63,10,4,0,0.00
2013-5-22,68.0,63.8,55.0,67.0,62.1,53.0,98,94,89,29.66,29.54,11,4,0,0.00
2013-5-23,55.0,49.2,45.0,54.0,47.0,40.0,98,93,78,30.14,29.60,19,11,0,0.00
2013-5-24,48.0,43.3,36.0,40.0,36.5,32.0,88,77,66,30.35,30.13,16,7,0,0.00
2013-5-25,57.0,48.0,37.0,44.0,39.1,35.0,95,73,49,30.40,30.28,9,4,0,0.00
2013-5-26,60.0,50.8,38.0,46.0,40.5,36.0,97,70,44,30.33,30.21,9,4,0,0.00
2013-5-27,65.0,55.1,41.0,52.0,42.6,31.0,92,65,36,30.23,29.98,14,4,0,0.00
2013-5-28,72.0,59.6,52.0,68.0,57.1,47.0,98,92,73,29.98,29.71,8,3,0,0.00
2013-5-29,78.0,69.5,63.0,69.0,65.4,61.0,97,87,73,29.90,29.70,16,5,0,0.00
2013-5-30,85.0,73.0,66.0,72.0,67.1,64.0,96,82,60,29.94,29.85,11,4,0,0.00
2013-5-31,79.0,74.3,70.0,69.0,66.5,64.0,90,77,64,29.88,29.75,10,6,0,0.00
2013-6-1,80.0,72.1,67.0,67.0,64.5,62.0,93,78,60,29.75,29.59,13,7,0,0.00
2013-6-2,68.0,59.0,47.0,63.0,51.6,-99.9,94,80,65,29.97,29.54,15,8,0,0.00
2013-6-3,68.0,53.3,39.0,44.0,39.8,37.0,94,64,35,30.04,29.94,13,5,0,0.00
2013-6-4,65.0,56.0,45.0,48.0,42.3,35.0,88,62,35,30.17,30.04,8,3,0,0.00
2013-6-5,62.0,58.4,55.0,52.0,44.3,37.0,83,61,46,30.17,30.01,15,7,0,0.00
2013-6-6,59.0,57.5,55.0,53.0,49.9,47.0,88,76,67,30.01,29.89,16,11,0,0.00
2013-6-7,60.0,55.4,48.0,54.0,50.5,46.0,92,84,70,29.91,29.86,12,8,0,0.00
2013-6-8,70.0,60.0,50.0,57.0,53.2,48.0,96,79,61,30.03,29.87,13,2,0,0.00
2013-6-9,72.0,63.3,52.0,64.0,57.5,51.0,97,82,68,30.07,29.93,8,3,0,0.00
2013-6-10,66.0,62.5,59.0,62.0,59.4,53.0,98,90,63,29.93,29.71,11,6,0,0.00
2013-6-11,79.0,67.1,61.0,68.0,62.6,60.0,99,86,66,29.83,29.73,8,3,0,0.00
2013-6-12,69.0,63.7,59.0,65.0,62.1,58.0,99,95,88,29.85,29.63,11,4,0,0.00
2013-6-13,72.0,65.8,60.0,62.0,59.0,55.0,95,79,58,29.90,29.62,16,6,0,0.00
2013-6-14,64.0,61.4,55.0,58.0,52.3,49.0,88,73,59,30.06,29.89,12,6,0,0.00
2013-6-15,77.0,64.3,50.0,62.0,55.3,48.0,96,74,47,30.01,29.82,7,3,0,0.00
2013-6-16,82.0,71.0,63.0,66.0,61.2,53.0,98,74,40,29.83,29.67,11,4,0,0.00
2013-6-17,76.0,64.2,58.0,63.0,58.0,54.0,89,81,63,29.92,29.77,16,5,0,0.00
2013-6-18,64.0,59.9,56.0,54.0,49.9,42.0,91,71,51,30.06,29.91,15,10,0,0.00
2013-6-19,68.0,61.4,46.0,53.0,47.6,42.0,92,62,46,30.15,30.06,8,4,0,0.00
2013-6-20,79.0,63.9,53.0,59.0,50.8,44.0,83,64,38,30.15,30.09,8,3,0,0.00
2013-6-22,87.0,79.7,67.0,72.0,69.0,65.0,92,71,58,29.98,29.88,11,5,0,0.00
2013-6-23,90.0,76.9,62.0,72.0,66.8,61.0,96,74,48,29.97,29.84,11,5,0,0.00
2013-6-24,86.0,78.7,72.0,71.0,67.9,63.0,86,70,55,29.93,29.81,9,5,0,0.00
2013-6-25,80.0,73.9,69.0,69.0,66.6,64.0,92,78,63,29.84,29.73,8,4,0,0.00
2013-6-26,82.0,74.7,65.0,72.0,68.3,63.0,96,81,64,29.78,29.67,8,3,0,0.00
2013-6-27,82.0,73.7,67.0,73.0,69.0,66.0,97,86,70,29.70,29.58,6,2,0,0.00
2013-6-28,72.0,67.6,64.0,68.0,64.9,63.0,98,91,83,29.59,29.48,11,4,0,0.00
2013-6-29,70.0,65.6,61.0,63.0,60.9,57.0,96,85,67,29.71,29.51,9,6,0,0.00
2013-6-30,70.0,65.6,59.0,64.0,56.2,44.0,95,74,40,29.95,29.71,13,6,0,0.00
2013-7-1,68.0,61.9,54.0,60.0,51.8,44.0,85,71,49,30.09,29.95,18,10,0,0.00
2013-7-2,69.0,63.5,58.0,59.0,54.4,47.0,91,73,56,30.06,30.02,13,9,0,0.00
2013-7-3,74.0,65.7,55.0,68.0,61.6,52.0,95,87,78,30.06,29.98,9,4,0,0.00
2013-7-4,79.0,70.9,63.0,67.0,63.1,61.0,98,78,56,30.05,29.99,8,3,0,0.00
2013-7-5,83.0,73.2,65.0,67.0,64.0,61.0,92,74,54,30.03,29.96,7,2,0,0.00
2013-7-6,87.0,76.2,67.0,72.0,67.1,63.0,94,75,47,30.02,29.89,6,2,0,0.00
2013-7-7,79.0,74.4,68.0,72.0,69.1,66.0,93,84,73,29.93,29.86,7,3,0,0.00
2013-7-8,80.0,73.7,71.0,73.0,70.0,68.0,97,89,72,29.92,29.88,8,4,0,0.00
2013-7-9,82.0,74.0,67.0,73.0,69.8,66.0,98,88,68,29.91,29.76,5,2,0,0.00
2013-7-10,82.0,73.6,65.0,72.0,63.1,-99.9,96,74,49,29.88,29.67,17,8,0,0.00
2013-7-11,71.0,64.7,58.0,61.0,57.5,55.0,92,78,63,30.03,29.88,8,4,0,0.00
2013-7-12,73.0,65.1,53.0,64.0,58.9,51.0,94,81,70,30.14,30.03,8,4,0,0.00
2013-7-13,80.0,71.7,57.0,67.0,62.8,55.0,95,75,56,30.16,30.10,8,3,0,0.00
2013-7-14,82.0,74.5,61.0,74.0,67.6,59.0,95,79,70,30.21,30.16,7,2,0,0.00
2013-7-15,89.0,80.1,71.0,77.0,71.9,68.0,91,77,56,30.23,30.15,5,1,0,0.00
2013-7-16,93.0,83.5,73.0,77.0,74.3,71.0,96,75,52,30.22,30.13,7,2,0,0.00
2013-7-17,93.0,82.5,74.0,77.0,74.0,71.0,90,76,56,30.17,30.04,7,3,0,0.00
2013-7-18,94.0,83.4,73.0,77.0,72.3,70.0,93,71,48,30.07,29.82,9,4,0,0.00
2013-7-19,91.0,83.5,75.0,75.0,72.9,69.0,86,71,52,29.82,29.58,15,8,0,0.00
2013-7-20,81.0,72.0,67.0,70.0,62.7,-99.9,94,76,46,29.90,29.64,13,4,0,0.00
2013-7-21,74.0,66.1,54.0,63.0,55.5,50.0,88,70,51,29.98,29.89,7,4,0,0.00
2013-7-22,83.0,71.9,62.0,71.0,64.0,59.0,96,77,56,29.92,29.66,7,2,0,0.00
2013-7-23,73.0,68.4,59.0,69.0,61.6,48.0,93,80,59,29.85,29.58,18,8,0,0.00
2013-7-24,68.0,58.8,49.0,55.0,50.1,46.0,91,73,59,30.01,29.85,11,5,0,0.00
2013-7-25,76.0,63.2,50.0,58.0,53.2,48.0,95,72,46,30.07,29.99,4,1,0,0.00
2013-7-26,77.0,66.6,60.0,65.0,58.7,53.0,95,76,58,30.01,29.82,8,4,0,0.00
2013-7-27,75.0,65.4,57.0,64.0,61.0,52.0,96,86,63,29.83,29.67,10,3,0,0.00
2013-7-28,67.0,58.2,51.0,56.0,52.2,48.0,92,81,60,29.89,29.74,8,4,0,0.00
2013-7-29,71.0,60.8,55.0,59.0,55.5,53.0,96,84,63,30.12,29.87,9,4,0,0.00
2013-7-30,74.0,63.4,51.0,63.0,56.4,50.0,96,79,59,30.18,30.07,7,1,0,0.00
2013-7-31,67.0,63.9,61.0,64.0,61.5,59.0,97,92,83,30.07,29.84,5,1,0,0.00
2013-8-1,78.0,68.1,58.0,64.0,58.8,54.0,97,75,46,29.84,29.80,9,3,0,0.00
2013-8-2,76.0,66.2,57.0,66.0,59.3,53.0,92,79,61,29.85,29.73,11,5,0,0.00
2013-8-3,75.0,65.0,55.0,59.0,55.2,53.0,94,73,51,30.02,29.84,15,4,0,0.00
2013-8-4,69.0,61.1,52.0,57.0,54.1,50.0,93,79,63,30.14,30.02,9,3,0,0.00
2013-8-5,72.0,61.7,54.0,57.0,54.3,51.0,94,77,54,30.06,29.90,7,2,0,0.00
2013-8-6,77.0,68.4,62.0,68.0,62.4,55.0,91,82,72,29.90,29.79,8,4,0,0.00
2013-8-7,83.0,72.3,64.0,68.0,65.5,60.0,96,80,55,29.86,29.70,13,5,0,0.00
2013-8-8,71.0,64.6,55.0,62.0,56.7,51.0,95,76,57,29.99,29.86,8,4,0,0.00
2013-8-9,80.0,66.9,52.0,61.0,56.0,51.0,96,71,45,29.96,29.85,9,3,0,0.00
2013-8-10,73.0,63.7,52.0,58.0,53.2,47.0,93,70,52,30.10,29.96,7,2,0,0.00
2013-8-11,75.0,64.9,53.0,58.0,55.2,51.0,95,73,47,30.07,29.98,5,1,0,0.00
2013-8-12,78.0,68.4,62.0,66.0,61.3,58.0,91,79,59,30.00,29.75,10,2,0,0.00
2013-8-13,66.0,58.0,51.0,60.0,46.7,-99.9,91,69,45,30.02,29.81,16,10,0,0.00
2013-8-14,72.0,58.0,48.0,52.0,46.1,-99.9,93,71,43,30.11,30.03,11,5,0,0.00
2013-8-15,76.0,55.7,46.0,57.0,37.0,-99.9,93,67,37,30.10,29.99,8,2,0,0.00
2013-8-16,77.0,62.5,51.0,59.0,49.3,-99.9,90,69,35,30.15,30.04,6,1,0,0.00
2013-8-17,79.0,66.2,50.0,64.0,56.8,49.0,96,75,46,30.22,30.13,5,1,0,0.00
2013-8-18,79.0,67.5,52.0,63.0,55.4,-99.9,95,70,47,30.18,30.04,5,1,0,0.00
2013-8-19,83.0,65.1,54.0,60.0,44.3,-99.9,95,66,42,30.06,29.94,7,2,0,0.00
2013-8-20,86.0,71.9,60.0,66.0,59.2,-99.9,89,69,43,30.04,29.97,8,3,0,0.00
2013-8-21,88.0,75.6,65.0,69.0,64.5,62.0,92,71,44,30.03,29.87,10,4,0,0.00
2013-8-22,82.0,74.7,67.0,68.0,65.1,60.0,89,73,56,30.02,29.85,9,4,0,0.00
2013-8-23,72.0,64.8,53.0,64.0,57.6,49.0,90,78,66,30.15,30.01,10,5,0,0.00
2013-8-24,80.0,67.6,51.0,63.0,57.4,50.0,96,72,49,30.27,30.15,5,1,0,0.00
2013-8-25,89.0,73.4,60.0,68.0,60.8,-99.9,92,68,50,30.22,30.00,11,6,0,0.00
2013-8-26,85.0,76.6,72.0,72.0,68.3,65.0,86,76,63,30.03,29.87,8,5,0,0.00
2013-8-27,77.0,72.1,69.0,73.0,69.4,67.0,95,91,84,29.90,29.79,7,2,0,0.00
2013-8-28,75.0,72.9,67.0,71.0,69.8,65.0,97,90,85,29.97,29.88,8,4,0,0.00
2013-8-29,85.0,72.6,61.0,73.0,66.4,60.0,99,83,50,30.04,29.92,4,1,0,0.00
2013-8-30,86.0,74.8,67.0,74.0,69.0,65.0,94,83,60,29.93,29.64,12,5,0,0.00
2013-8-31,74.0,69.9,67.0,67.0,65.3,63.0,95,86,74,29.80,29.72,10,6,0,0.00
2013-9-1,76.0,67.6,62.0,68.0,62.5,-99.9,97,87,73,29.80,29.65,6,2,0,0.00
2013-9-2,70.0,62.8,56.0,68.0,57.4,52.0,95,83,68,29.86,29.67,12,8,0,0.00
2013-9-3,77.0,64.2,54.0,55.0,52.6,50.0,91,69,40,29.95,29.86,10,4,0,0.00
2013-9-4,79.0,63.9,56.0,66.0,58.3,52.0,95,83,60,30.06,29.93,10,5,0,0.00
2013-9-5,64.0,55.3,45.0,53.0,47.9,43.0,93,77,59,30.23,30.06,11,4,0,0.00
2013-9-6,75.0,60.6,45.0,56.0,50.6,43.0,94,72,46,30.23,29.98,8,4,0,0.00
2013-9-7,77.0,67.8,63.0,69.0,62.1,55.0,95,82,73,29.98,29.81,9,4,0,0.00
2013-9-8,70.0,63.8,59.0,68.0,54.5,-99.9,95,74,64,30.09,29.88,13,8,0,0.00
2013-9-9,78.0,66.4,54.0,70.0,60.2,50.0,90,81,70,30.02,29.77,8,3,0,0.00
2013-9-10,95.0,82.3,72.0,72.0,68.9,64.0,92,67,37,29.87,29.75,12,7,0,0.00
2013-9-11,84.0,76.3,68.0,69.0,66.1,64.0,93,72,52,29.92,29.85,8,4,0,0.00
2013-9-12,76.0,66.0,57.0,64.0,55.6,43.0,95,71,44,29.93,29.80,20,8,0,0.00
2013-9-13,59.0,52.2,44.0,46.0,42.7,38.0,89,71,48,30.11,29.93,16,7,0,0.00
2013-9-14,69.0,53.5,39.0,46.0,40.8,37.0,95,67,35,30.15,30.01,8,3,0,0.00
2013-9-15,60.0,54.0,53.0,55.0,48.4,-99.9,97,85,68,30.07,29.98,6,3,0,0.00
2013-9-16,55.0,52.0,47.0,54.0,45.4,41.0,97,79,63,30.36,30.07,15,7,0,0.00
2013-9-17,63.0,50.7,35.0,54.0,44.8,34.0,97,81,66,30.39,30.18,7,2,0,0.00
2013-9-18,65.0,46.2,40.0,46.0,41.8,38.0,96,86,70,30.18,29.96,6,0,0,0.00
2013-9-19,79.0,68.8,61.0,69.0,62.3,55.0,92,80,69,29.96,29.79,9,4,0,0.00
2013-9-20,76.0,69.7,66.0,71.0,66.5,63.0,97,90,77,29.79,29.63,9,5,0,0.00
2013-9-21,66.0,59.0,51.0,63.0,52.9,45.0,94,81,55,29.84,29.61,14,7,0,0.00
2013-9-22,55.0,48.5,41.0,45.0,39.4,-99.9,94,74,57,30.06,29.84,11,5,0,0.00
2013-9-23,59.0,52.1,47.0,48.0,43.3,40.0,93,72,60,30.17,30.06,6,2,0,0.00
2013-9-24,60.0,51.6,38.0,52.0,46.0,37.0,97,82,61,30.13,29.98,8,3,0,0.00
2013-9-25,63.0,54.8,41.0,56.0,50.2,40.0,97,85,69,29.99,29.95,12,4,0,0.00
2013-9-26,66.0,54.1,42.0,59.0,51.3,41.0,98,91,70,30.11,29.98,7,2,0,0.00
2013-9-27,69.0,55.5,41.0,60.0,51.5,40.0,99,88,55,30.20,30.10,7,2,0,0.00
2013-9-28,78.0,65.5,53.0,61.0,54.9,51.0,98,72,41,30.15,29.91,9,4,0,0.00
2013-9-29,67.0,61.7,57.0,59.0,54.2,-99.9,96,79,63,29.95,29.83,11,5,0,0.00
2013-9-30,68.0,56.9,47.0,57.0,52.4,46.0,98,87,54,29.98,29.86,5,1,0,0.00
2013-10-1,68.0,64.1,53.0,62.0,59.5,51.0,94,85,79,29.88,29.82,6,4,0,0.00
2013-10-2,75.0,63.9,51.0,61.0,48.1,38.0,95,63,27,30.03,29.83,6,3,0,0.00
2013-10-3,73.0,61.0,46.0,65.0,54.7,43.0,95,81,60,30.02,29.83,6,1,0,0.00
2013-10-4,69.0,63.8,60.0,66.0,62.5,59.0,98,96,89,30.01,29.83,12,5,0,0.00
2013-10-5,67.0,62.9,60.0,66.0,61.9,59.0,98,96,94,30.01,29.77,10,6,0,0.00
2013-10-6,71.0,64.4,54.0,66.0,62.3,53.0,98,93,80,29.78,29.58,11,5,0,0.00
2013-10-7,60.0,53.1,49.0,53.0,47.8,44.0,96,83,57,30.03,29.58,14,6,0,0.00
2013-10-8,69.0,54.6,40.0,50.0,45.2,39.0,98,74,44,30.23,30.03,8,3,0,0.00
2013-10-9,68.0,55.5,41.0,55.0,47.1,39.0,96,75,49,30.27,30.16,6,2,0,0.00
2013-10-10,65.0,53.5,41.0,57.0,49.2,40.0,97,86,64,30.20,30.09,6,2,0,0.00
2013-10-11,64.0,52.9,40.0,58.0,49.2,39.0,98,88,72,30.13,30.04,9,3,0,0.00
2013-10-12,77.0,60.6,45.0,61.0,53.3,44.0,98,78,53,30.05,29.94,7,3,0,0.00
2013-10-13,64.0,56.0,48.0,59.0,45.4,-99.9,91,71,47,30.32,30.00,9,4,0,0.00
2013-10-14,56.0,49.3,39.0,46.0,43.2,37.0,98,80,67,30.40,30.25,12,4,0,0.00
2013-10-15,65.0,53.5,37.0,58.0,49.3,35.0,97,86,70,30.25,29.73,8,3,0,0.00
2013-10-16,59.0,54.2,49.0,58.0,50.8,46.0,97,88,80,29.82,29.71,12,6,0,0.00
2013-10-17,52.0,48.8,45.0,49.0,46.5,43.0,96,92,83,29.83,29.68,13,3,0,0.00
2013-10-18,61.0,48.8,39.0,48.0,42.8,38.0,97,81,53,29.82,29.74,11,5,0,0.00
2013-10-19,52.0,45.8,39.0,44.0,40.4,34.0,91,82,52,29.81,29.65,12,5,0,0.00
2013-10-20,54.0,45.3,38.0,45.0,37.7,-99.9,96,79,52,29.83,29.69,8,4,0,0.00
2013-10-21,53.0,49.1,40.0,48.0,42.1,31.0,91,77,62,29.77,29.68,12,8,0,0.00
2013-10-22,48.0,39.9,32.0,37.0,31.6,26.0,85,72,56,29.84,29.76,11,7,0,0.00
2013-10-23,45.0,38.0,32.0,35.0,30.8,24.0,95,77,44,29.87,29.80,15,6,0,0.00
2013-10-24,45.0,36.2,30.0,36.0,31.1,28.0,94,83,62,30.11,29.86,16,5,0,0.00
2013-10-25,46.0,41.3,33.0,36.0,30.5,26.0,95,67,46,30.25,29.93,9,7,0,0.00
2013-10-26,47.0,43.1,36.0,41.0,36.2,30.0,92,77,59,29.94,29.65,17,10,0,0.00
2013-10-27,50.0,40.7,32.0,36.0,31.7,-99.9,93,74,54,29.99,29.88,10,4,0,0.00
2013-10-28,43.0,39.4,36.0,36.0,31.9,-99.9,86,78,67,30.41,29.96,18,9,0,0.00
2013-10-29,42.0,38.2,29.0,37.0,32.9,25.0,88,81,69,30.44,30.22,9,4,0,0.00
2013-10-30,53.0,41.0,31.0,46.0,38.0,29.0,97,89,77,30.22,29.88,5,1,0,0.00
2013-10-31,61.0,55.9,51.0,60.0,54.4,45.0,100,95,74,29.89,28.99,9,4,0,0.00
2013-11-1,60.0,49.0,46.0,59.0,46.5,44.0,97,91,84,29.59,28.95,15,8,0,0.00
2013-11-2,46.0,41.4,34.0,45.0,37.7,29.0,96,87,75,30.09,29.59,15,9,0,0.00
2013-11-3,42.0,36.0,30.0,36.0,29.8,-99.9,95,81,66,30.41,30.09,7,3,0,0.00
2013-11-4,47.0,40.8,34.0,34.0,30.6,26.0,86,68,45,30.43,30.21,9,7,0,0.00
2013-11-5,58.0,50.5,45.0,48.0,43.7,35.0,82,77,68,30.27,30.06,8,5,0,0.00
2013-11-6,56.0,51.1,41.0,54.0,47.5,37.0,96,88,71,30.06,29.63,16,9,0,0.00
2013-11-7,40.0,37.7,36.0,36.0,30.8,26.0,88,76,61,30.07,29.92,10,6,0,0.00
2013-11-8,43.0,36.5,30.0,32.0,28.7,26.0,89,74,53,30.22,30.05,9,4,0,0.00
2013-11-9,50.0,43.9,36.0,42.0,34.1,-99.9,78,71,64,30.10,29.68,15,9,0,0.00
2013-11-10,45.0,41.2,34.0,35.0,31.1,28.0,79,67,54,30.19,29.81,21,10,0,0.00
2013-11-11,40.0,33.9,26.0,36.0,28.0,17.0,93,79,64,30.31,29.97,20,10,0,0.00
2013-11-12,32.0,26.3,21.0,22.0,17.9,16.0,86,71,56,30.51,30.31,15,8,0,0.00
2013-11-13,42.0,30.7,21.0,25.0,19.7,17.0,87,66,38,30.49,30.01,16,9,0,0.00
2013-11-14,47.0,38.9,32.0,32.0,27.9,24.0,77,65,52,30.01,29.86,14,9,0,0.00
2013-11-15,48.0,42.7,38.0,35.0,30.9,28.0,72,63,57,29.98,29.88,10,6,0,0.00
2013-11-16,55.0,44.8,36.0,51.0,37.7,-99.9,91,79,72,30.01,29.68,14,6,0,0.00
2013-11-17,63.0,56.9,45.0,59.0,54.1,43.0,96,91,85,29.66,29.02,21,12,0,0.00
2013-11-18,46.0,38.9,34.0,42.0,30.9,25.0,90,73,61,30.06,29.25,18,14,0,0.00
2013-11-19,36.0,33.4,30.0,27.0,24.6,23.0,80,70,64,30.38,30.08,12,5,0,0.00
2013-11-20,43.0,34.8,27.0,35.0,28.7,24.0,88,79,64,30.41,30.20,7,3,0,0.00
2013-11-21,47.0,41.6,37.0,43.0,37.4,29.0,96,85,72,30.24,30.12,5,1,0,0.00
2013-11-22,44.0,36.4,26.0,43.0,32.8,22.0,97,87,72,30.33,30.09,20,7,0,0.00
2013-11-23,28.0,22.1,15.0,24.0,12.6,-99.9,89,70,46,30.49,30.20,24,12,0,0.00
2013-11-24,23.0,18.8,14.0,15.0,11.4,9.0,84,73,56,30.56,30.31,10,6,0,0.00
2013-11-25,31.0,25.9,21.0,28.0,16.8,5.0,94,70,45,30.31,29.95,15,10,0,0.00
2013-11-26,33.0,30.5,27.0,30.0,27.9,22.0,95,90,81,30.01,29.89,17,6,0,0.00
2013-11-27,26.0,20.9,17.0,20.0,13.2,10.0,87,72,56,30.16,29.95,22,12,0,0.00
2013-11-28,24.0,20.0,15.0,22.0,16.6,11.0,94,87,74,30.42,30.16,7,2,0,0.00
2013-12-2,36.0,31.4,29.0,29.0,27.7,26.0,95,87,69,29.99,29.87,5,0,0,0.00
2013-12-3,32.0,30.3,26.0,31.0,29.0,25.0,97,95,90,29.92,29.85,8,4,0,0.00
2013-12-4,52.0,35.9,32.0,51.0,35.2,31.0,99,98,96,29.86,29.50,9,5,0,0.00
2013-12-5,54.0,39.7,27.0,52.0,32.5,18.0,95,76,56,30.07,29.48,15,10,0,0.00
2013-12-6,26.0,21.9,18.0,17.0,13.7,9.0,75,70,64,30.37,30.07,10,7,0,0.00
2013-12-7,22.0,18.0,12.0,13.0,7.8,-99.9,77,66,58,30.59,30.37,12,6,0,0.00
2013-12-8,26.0,17.2,10.0,24.0,12.4,6.0,93,81,68,30.57,29.99,8,4,0,0.00
2013-12-9,29.0,24.1,14.0,26.0,20.3,6.0,95,85,64,30.02,29.80,15,7,0,0.00
2013-12-10,18.0,13.0,4.0,13.0,6.8,0.0,86,76,60,30.11,29.84,14,7,0,0.00
2013-12-11,17.0,12.8,5.0,11.0,5.8,0.0,87,74,55,30.39,30.12,13,6,0,0.00
2013-12-12,19.0,11.4,5.0,15.0,6.9,0.0,88,82,76,30.40,30.09,12,7,0,0.00
2013-12-13,22.0,19.2,12.0,18.0,14.6,8.0,89,82,76,30.34,30.07,15,7,0,0.00
2013-12-14,22.0,18.1,11.0,20.0,14.6,-99.9,93,89,83,30.34,29.83,14,10,0,0.00
2013-12-15,23.0,18.2,11.0,19.0,14.0,5.0,93,84,68,29.94,29.73,13,6,0,0.00
2013-12-16,16.0,10.3,1.0,10.0,5.1,-2.0,89,80,63,30.19,29.94,8,2,0,0.00
2013-12-17,26.0,20.1,14.0,24.0,17.5,9.0,93,90,75,30.02,29.80,12,3,0,0.00
2013-12-18,27.0,24.6,21.0,22.0,19.7,14.0,90,82,70,30.04,29.80,9,5,0,0.00
2013-12-19,32.0,26.5,21.0,28.0,22.1,13.0,94,83,71,30.00,29.76,10,4,0,0.00
2013-12-20,32.0,29.5,26.0,31.0,28.5,25.0,97,96,95,29.93,29.74,16,10,0,0.00
2013-12-21,30.0,28.2,27.0,29.0,25.6,-99.9,97,93,91,29.89,29.74,15,9,0,0.00
2013-12-22,30.0,26.8,21.0,29.0,25.8,19.0,98,96,93,29.98,29.63,20,12,0,0.00
2013-12-23,22.0,18.7,11.0,20.0,16.6,8.0,95,91,84,30.29,29.97,8,3,0,0.00
2013-12-27,37.0,26.2,18.0,32.0,23.3,15.0,94,88,81,30.27,29.91,13,5,0,0.00
2013-12-28,40.0,35.5,31.0,34.0,30.1,-99.9,92,84,78,30.02,29.78,11,5,0,0.00
2013-12-29,38.0,28.9,15.0,33.0,23.3,7.0,90,80,70,30.00,29.67,18,9,0,0.00
2013-12-30,16.0,13.4,11.0,7.0,4.6,2.0,74,68,56,30.25,30.01,14,4,0,0.00
2013-12-31,15.0,12.0,9.0,10.0,5.4,1.0,88,75,61,30.32,30.02,15,7,0,0.00
2014-1-1,13.0,8.1,0.0,8.0,2.2,-5.0,86,77,60,30.44,30.33,13,6,0,0.00
2014-1-2,10.0,7.7,0.0,8.0,2.7,-6.0,90,80,67,30.33,30.20,23,15,0,0.00